Stations météo

Publicité
Rimini, Italie (16149): Température de l'air & dewpoint: 12.09.2018 17:00:00 - 18.09.2018 17:00:00 (CEST)Rimini, Italie (16149): Vitesse du vent: 12.09.2018 17:00:00 - 18.09.2018 17:00:00 (CEST)Rimini, Italie (16149): Direction du vent: 12.09.2018 17:00:00 - 18.09.2018 17:00:00 (CEST)Rimini, Italie (16149): reduced air pressure: 12.09.2018 17:00:00 - 18.09.2018 17:00:00 (CEST)Rimini, Italie (16149): visibility: 12.09.2018 17:00:00 - 18.09.2018 17:00:00 (CEST)Rimini, Italie (16149): Quantités de précipitations: 12.09.2018 17:00:00 - 18.09.2018 17:00:00 (CEST)
Date & Time tt [°C] td [°C] ff [km/h] ff [knt] dd ppp [hPa] vv [km] rr [mm]
18.09.2018 17:00:00 24,2 20,9 8 4 NE 1018,7 10 0,0
18.09.2018 16:00:00 25,0 19,0 11 6 NE - 10 -
18.09.2018 15:00:00 25,0 20,0 11 6 ENE - 8 -
18.09.2018 14:00:00 24,8 20,0 11 6 NE 1019,6 8 -
18.09.2018 13:00:00 24,0 21,0 13 7 NNE - 7 -
18.09.2018 12:00:00 24,0 21,0 13 7 N - 8 -
18.09.2018 11:00:00 23,9 20,5 9 5 N 1020,2 10 0,0
18.09.2018 10:00:00 23,0 18,0 4 2 - - 10 -
18.09.2018 09:00:00 21,0 18,0 2 1 - - 10 -
18.09.2018 08:00:00 18,3 17,0 2 1 S 1019,9 10 -
18.09.2018 07:00:00 18,0 17,0 2 1 - - 10 -
18.09.2018 06:00:00 19,0 17,0 4 2 S - 10 -
18.09.2018 05:00:00 19,1 17,5 4 2 S 1019,3 10 0,0
18.09.2018 04:00:00 19,0 18,0 4 2 - - 10 -
18.09.2018 03:00:00 20,0 18,0 2 1 - - 10 -
18.09.2018 02:00:00 19,9 18,1 5 3 SSW 1019,4 10 -
18.09.2018 01:00:00 20,0 19,0 2 1 S - 10 -
18.09.2018 00:00:00 20,0 18,0 8 4 S - 10 -
17.09.2018 23:00:00 19,4 18,6 2 1 SSE 1019,5 10 0,0
17.09.2018 22:00:00 22,0 19,0 4 2 - - 10 -
17.09.2018 21:00:00 21,0 19,0 8 4 SSE - 8 -
17.09.2018 20:00:00 22,0 18,8 4 2 S 1019,8 8 -
17.09.2018 19:00:00 24,0 22,0 4 2 - - 7 -
17.09.2018 18:00:00 24,0 22,0 4 2 - - 8 -
17.09.2018 17:00:00 24,3 21,7 5 3 E 1019,5 8 0,0
17.09.2018 16:00:00 24,0 22,0 9 5 ENE - 7 -
17.09.2018 15:00:00 24,0 21,0 11 6 NE - 8 -
17.09.2018 14:00:00 24,6 21,2 11 6 NNE 1020,6 8 -
17.09.2018 13:00:00 25,0 21,0 11 6 NE - 8 -
17.09.2018 12:00:00 25,0 21,0 9 5 NNE - 8 -
17.09.2018 11:00:00 24,5 20,5 9 5 NNE 1021,6 8 0,0
17.09.2018 10:00:00 24,0 20,0 5 3 WNW - 7 -
17.09.2018 09:00:00 21,0 19,0 4 2 SSE - 6 -
17.09.2018 08:00:00 19,6 18,3 4 2 SW 1021,2 6 -
17.09.2018 07:00:00 19,0 18,0 4 2 S - 9 -
17.09.2018 06:00:00 19,0 18,0 5 3 S - 9 -
17.09.2018 05:00:00 19,5 18,4 5 3 SSW 1020,7 9 0,0
17.09.2018 04:00:00 19,0 19,0 2 1 - - 8 -
17.09.2018 03:00:00 20,0 19,0 4 2 S - 7 -
17.09.2018 02:00:00 20,3 19,1 8 4 S 1020,9 9 -
17.09.2018 01:00:00 21,0 19,0 2 1 SSE - 10 -
17.09.2018 00:00:00 21,0 19,0 5 3 WSW - 10 -
16.09.2018 23:00:00 22,0 19,5 5 3 E 1021,1 10 0,0
16.09.2018 22:00:00 23,0 20,0 5 3 E - 10 -
16.09.2018 21:00:00 23,0 20,0 5 3 ESE - 10 -
16.09.2018 20:00:00 23,6 19,8 8 4 SE 1021,0 10 -
16.09.2018 19:00:00 24,0 20,0 9 5 E - 10 -
16.09.2018 18:00:00 24,0 20,0 13 7 E - 10 -
16.09.2018 17:00:00 25,4 20,4 11 6 ENE 1021,0 10 0,0
16.09.2018 16:00:00 26,0 21,0 13 7 ENE - 10 -
16.09.2018 15:00:00 26,0 21,0 13 7 NE - 10 -
16.09.2018 14:00:00 25,2 20,5 15 8 NE 1022,0 10 -
16.09.2018 13:00:00 25,0 21,0 13 7 NNE - 10 -
16.09.2018 12:00:00 25,0 20,0 9 5 NNE - 10 -
16.09.2018 11:00:00 24,3 20,5 8 4 N 1022,8 10 0,0
16.09.2018 10:00:00 24,0 21,0 2 1 - - 9 -
16.09.2018 09:00:00 22,0 20,0 2 1 - - 7 -
16.09.2018 08:00:00 20,2 19,2 4 2 W 1022,3 4,5 -
16.09.2018 07:00:00 19,0 18,0 2 1 WSW - 7 -
16.09.2018 06:00:00 19,0 18,0 4 2 S - 5 -
16.09.2018 05:00:00 19,2 18,4 4 2 SW 1021,5 6 0,0
16.09.2018 04:00:00 19,0 19,0 4 2 SSW - 5 -
16.09.2018 03:00:00 20,0 19,0 4 2 SSW - 7 -
16.09.2018 02:00:00 19,4 18,4 4 2 S 1021,7 6 -
16.09.2018 01:00:00 20,0 19,0 4 2 SSW - 8 -
16.09.2018 00:00:00 21,0 19,0 5 3 SSW - 8 -
15.09.2018 23:00:00 20,9 19,8 2 1 S 1021,2 8 0,0
15.09.2018 22:00:00 22,0 20,0 4 2 - - 8 -
15.09.2018 21:00:00 22,0 21,0 2 1 - - 8 -
15.09.2018 20:00:00 23,3 20,8 5 3 NE 1020,3 8 -
15.09.2018 19:00:00 24,0 20,0 5 3 NE - 10 -
15.09.2018 18:00:00 25,0 20,0 9 5 ENE - 10 -
15.09.2018 17:00:00 25,1 20,6 11 6 ENE 1019,6 10 0,0
15.09.2018 16:00:00 26,0 21,0 15 8 NE - 10 -
15.09.2018 15:00:00 26,0 20,0 15 8 NE - 10 -
15.09.2018 14:00:00 25,4 19,8 11 6 N 1019,7 10 -
15.09.2018 13:00:00 25,0 20,0 9 5 N - 10 -
15.09.2018 12:00:00 25,0 20,0 13 7 N - 10 -
15.09.2018 11:00:00 25,0 18,4 21 11 W 1020,1 10 0,0
15.09.2018 10:00:00 24,0 18,0 16 9 NW - 10 -
15.09.2018 09:00:00 23,0 18,0 4 2 - - 10 -
15.09.2018 08:00:00 19,4 16,6 5 3 S 1017,6 10 -
15.09.2018 07:00:00 18,0 17,0 8 4 S - 10 -
15.09.2018 06:00:00 18,0 17,0 2 1 - - 10 -
15.09.2018 05:00:00 18,4 17,2 4 2 - 1016,7 10 0,0
15.09.2018 04:00:00 19,0 17,0 4 2 - - 10 -
15.09.2018 03:00:00 20,0 18,0 4 2 SSW - 10 -
15.09.2018 02:00:00 19,9 18,0 4 2 S 1016,4 10 -
15.09.2018 01:00:00 20,0 18,0 5 3 SSW - 10 -
15.09.2018 00:00:00 22,0 18,0 2 1 S - 10 -
14.09.2018 23:00:00 21,9 18,4 5 3 E 1016,1 10 0,0
14.09.2018 22:00:00 22,0 19,0 4 2 ESE - 10 -
14.09.2018 21:00:00 23,0 19,0 4 2 - - 10 -
14.09.2018 20:00:00 23,8 19,6 5 3 ESE 1015,3 8 -
14.09.2018 19:00:00 25,0 20,0 8 4 E - 8 -
14.09.2018 18:00:00 25,0 20,0 9 5 E - 8 -
14.09.2018 17:00:00 25,4 19,7 11 6 ENE 1015,1 10 0,0
14.09.2018 16:00:00 26,0 20,0 11 6 NE - 10 -
14.09.2018 15:00:00 26,0 19,0 15 8 NNE - 10 -
14.09.2018 14:00:00 26,0 19,4 15 8 N 1015,5 10 -
14.09.2018 13:00:00 26,0 19,0 13 7 N - 8 -
14.09.2018 12:00:00 26,0 19,0 11 6 NNW - 8 -
14.09.2018 11:00:00 26,1 17,3 13 7 WNW 1015,9 10 0,0
14.09.2018 10:00:00 25,0 15,0 15 8 WNW - 10 -
14.09.2018 09:00:00 23,0 18,0 4 2 - - 10 -
14.09.2018 08:00:00 20,2 17,7 4 2 S 1014,8 10 -
14.09.2018 07:00:00 20,0 17,0 5 3 W - 10 -
14.09.2018 06:00:00 20,0 17,0 4 2 SW - 10 -
14.09.2018 05:00:00 19,4 17,0 4 2 S 1014,1 10 0,0
14.09.2018 04:00:00 20,0 17,0 2 1 - - 10 -
14.09.2018 03:00:00 20,0 17,0 4 2 SSW - 10 -
14.09.2018 02:00:00 20,1 18,1 4 2 S 1014,5 10 -
14.09.2018 01:00:00 20,0 19,0 2 1 - - 9 -
14.09.2018 00:00:00 21,0 19,0 4 2 - - 9 -
13.09.2018 23:00:00 21,5 19,6 2 1 - 1014,3 10 0,0
13.09.2018 22:00:00 22,0 20,0 8 4 S - 10 -
13.09.2018 21:00:00 22,0 19,0 2 1 - - 10 -
13.09.2018 20:00:00 22,0 19,6 4 2 - 1014,0 10 -
13.09.2018 19:00:00 24,0 20,0 2 1 - - 8 -
13.09.2018 18:00:00 24,0 20,0 4 2 SE - 8 -
13.09.2018 17:00:00 24,5 20,6 4 2 - 1014,5 7 0,0
13.09.2018 16:00:00 25,0 21,0 8 4 NE - 8 -
13.09.2018 15:00:00 25,0 21,0 8 4 NE - 10 -
13.09.2018 14:00:00 24,7 21,2 9 5 N 1015,5 10 -
13.09.2018 13:00:00 25,0 21,0 8 4 N - 10 -
13.09.2018 12:00:00 25,0 21,0 5 3 NNE - 10 -
13.09.2018 11:00:00 25,0 20,5 4 2 - 1016,1 10 0,0
13.09.2018 10:00:00 23,0 20,0 5 3 WNW - 10 -
13.09.2018 09:00:00 21,0 19,0 4 2 - - 10 -
13.09.2018 08:00:00 19,6 18,2 5 3 S 1015,5 10 -
13.09.2018 07:00:00 19,0 18,0 5 3 W - 10 -
13.09.2018 06:00:00 19,0 18,0 2 1 - - 10 -
13.09.2018 05:00:00 19,1 17,7 2 1 W 1015,8 10 0,0
13.09.2018 04:00:00 19,0 18,0 4 2 S - 10 -
13.09.2018 03:00:00 20,0 18,0 5 3 S - 10 -
13.09.2018 02:00:00 19,7 18,1 8 4 SSW 1017,0 10 -
13.09.2018 01:00:00 20,0 18,0 4 2 - - 10 -
13.09.2018 00:00:00 20,0 18,0 4 2 S - 9 -
12.09.2018 23:00:00 20,2 18,1 4 2 WSW 1018,6 10 0,0
12.09.2018 22:00:00 21,0 19,0 4 2 S - 10 -
12.09.2018 21:00:00 22,0 20,0 2 1 SSE - 10 -
12.09.2018 20:00:00 23,6 19,7 8 4 E 1019,1 10 -
12.09.2018 19:00:00 24,0 20,0 9 5 E - 10 -
12.09.2018 18:00:00 26,0 20,0 11 6 E - 10 -
12.09.2018 17:00:00 25,7 19,7 11 6 ENE 1020,6 10 0,0

tt = Température de l'air
td = dewpoint
ff = Vitesse du vent
dd = Direction du vent
ppp = reduced air pressure
vv = visibility
rr = Quantités de précipitations

stations d'obs. à proximité